Date String (YYYY-MM-DD hh:mm:ss) UTC,Instrument flags,Ambient pressure (hPa),Sample flow (lpm),Bypass flow (lpm),Sample temperature (°C),Ambient temperature (°C),ASC tube jacket temperature (°C),LED temperature (°C),Box temperature (°C),Sample RH (%),Span deviation,Mass concentration (μg/m³),Mass concentration (μg/m³),Mass concentration (μg/m³)
DateTimeUTC,F1_M11,P_M11,Q1_M11,Q2_M11,T1_M11,T2_M11,T3_M11,T4_M11,T5_M11,U1_M11,ZSPAN_M11,X2_M11,X0_M11,X1_M11
2022-07-26 22:00:00,,0829.1,4.99,0.00,32.0,28.3,00.0,39.9,32.3,32.3,0000.0,0009.28,0015.84,0008.25
2022-07-26 22:01:00,,0829.1,5.01,0.00,32.0,28.5,00.0,39.9,32.3,32.0,0000.0,0009.27,0015.35,0008.24
2022-07-26 22:02:00,,0828.9,4.99,0.00,32.0,28.6,00.0,40.0,32.4,32.5,0000.0,0009.21,0015.20,0008.21
2022-07-26 22:03:00,,0828.9,5.00,0.00,31.9,28.4,00.0,39.9,32.4,31.6,0000.0,0009.16,0014.64,0008.17
2022-07-26 22:04:00,,0828.7,5.01,0.00,31.9,27.8,00.0,39.9,32.2,32.3,0000.0,0009.15,0014.64,0008.15
2022-07-26 22:05:00,,0828.7,5.01,0.00,31.8,27.4,00.0,39.9,32.1,31.6,0000.0,0009.12,0014.29,0008.14
2022-07-26 22:06:00,,0828.9,4.98,0.00,31.6,27.4,00.0,39.8,32.0,33.6,0000.0,0009.08,0014.11,0008.12
2022-07-26 22:07:00,,0829.0,5.01,0.00,31.6,27.5,00.0,39.8,32.0,36.7,0000.0,0009.13,0014.37,0008.13
2022-07-26 22:08:00,,0828.7,4.99,0.00,31.7,27.7,00.0,39.8,32.1,32.1,0000.0,0009.12,0013.84,0008.15
2022-07-26 22:09:00,,0828.7,4.99,0.00,31.8,27.9,00.0,39.8,32.2,34.2,0000.0,0009.14,0014.33,0008.17
2022-07-26 22:10:00,,0828.7,5.00,0.00,31.9,28.1,00.0,39.8,32.3,35.2,0000.0,0009.19,0014.45,0008.20
2022-07-26 22:11:00,,0828.7,5.00,0.00,32.1,28.3,00.0,39.8,32.4,36.4,0000.0,0009.31,0014.78,0008.25
2022-07-26 22:12:00,,0828.8,5.01,0.00,32.4,28.5,00.0,39.8,32.6,35.8,0000.0,0009.35,0014.89,0008.28
2022-07-26 22:13:00,,0828.9,4.99,0.00,32.7,28.3,00.0,39.8,32.7,30.1,0001.8,0009.34,0014.86,0008.27
2022-07-26 22:14:00,,0828.7,5.00,0.00,32.8,27.7,00.0,39.8,32.6,29.6,0002.2,0009.35,0014.75,0008.25
2022-07-26 22:15:00,,0828.7,4.99,0.00,32.8,27.4,00.0,39.9,32.4,30.0,0001.2,0009.24,0014.26,0008.23
2022-07-26 22:16:00,,0828.8,5.00,0.00,32.8,27.4,00.0,39.9,32.3,30.0,0000.0,0009.25,0014.35,0008.23
2022-07-26 22:17:00,,0828.7,5.00,0.00,32.6,27.5,00.0,40.0,32.2,28.9,0000.0,0009.26,0014.51,0008.22
2022-07-26 22:18:00,,0828.7,4.99,0.00,32.5,27.7,00.0,40.0,32.1,28.9,0000.0,0009.23,0014.66,0008.19
2022-07-26 22:19:00,,0829.0,4.99,0.00,32.5,27.9,00.0,40.1,32.2,29.7,0000.0,0009.22,0014.62,0008.19
2022-07-26 22:20:00,,0829.1,5.01,0.00,32.4,28.1,00.0,40.1,32.3,29.2,0000.0,0009.20,0014.00,0008.19
2022-07-26 22:21:00,,0829.0,5.01,0.00,32.4,28.3,00.0,40.2,32.4,29.5,0000.0,0009.13,0013.71,0008.16
2022-07-26 22:22:00,,0828.7,5.00,0.00,32.3,28.5,00.0,40.2,32.4,31.2,0000.0,0009.02,0013.38,0008.12
2022-07-26 22:23:00,,0829.0,5.00,0.00,32.3,28.4,00.0,40.2,32.5,31.7,0000.0,0008.99,0013.42,0008.10
2022-07-26 22:24:00,,0828.9,5.00,0.00,32.2,27.9,00.0,40.1,32.4,31.4,0000.0,0009.02,0014.21,0008.11
2022-07-26 22:25:00,,0828.9,5.00,0.00,32.1,27.5,00.0,40.1,32.3,32.0,0000.0,0009.05,0014.23,0008.14
2022-07-26 22:26:00,,0829.0,5.01,0.00,32.0,27.4,00.0,40.1,32.1,30.1,0000.0,0009.10,0014.96,0008.17
2022-07-26 22:27:00,,0829.0,5.00,0.00,31.8,27.5,00.0,40.0,32.0,30.0,0000.0,0009.10,0015.09,0008.19
2022-07-26 22:28:00,,0828.7,5.00,0.00,31.7,27.7,00.0,40.0,32.0,29.8,0000.0,0009.13,0015.01,0008.21
2022-07-26 22:29:00,,0829.0,4.99,0.00,31.6,27.9,00.0,40.0,32.1,30.6,0000.0,0009.13,0014.62,0008.24
2022-07-26 22:30:00,,0829.0,5.00,0.00,31.6,28.1,00.0,39.9,32.2,29.6,0000.0,0009.19,0014.71,0008.25
2022-07-26 22:31:00,,0829.1,5.01,0.00,31.5,28.3,00.0,39.9,32.2,30.6,0000.0,0009.21,0014.79,0008.27
2022-07-26 22:32:00,,0829.0,4.98,0.00,31.5,28.4,00.0,39.9,32.3,30.6,0000.0,0009.23,0015.67,0008.29
2022-07-26 22:33:00,,0828.9,5.01,0.00,31.5,28.1,00.0,39.8,32.2,30.9,0000.0,0009.24,0015.68,0008.30
2022-07-26 22:34:00,,0828.7,5.00,0.00,31.4,27.5,00.0,39.7,32.1,31.5,0000.0,0009.21,0015.48,0008.29
2022-07-26 22:35:00,,0828.5,5.00,0.00,31.3,27.3,00.0,39.7,32.0,31.7,0000.0,0009.22,0014.95,0008.31
2022-07-26 22:36:00,,0828.5,5.01,0.00,31.2,27.3,00.0,39.7,31.9,32.5,0000.0,0009.20,0014.76,0008.31
2022-07-26 22:37:00,,0828.5,5.00,0.00,31.1,27.5,00.0,39.6,31.8,32.3,0000.0,0009.28,0014.76,0008.30
2022-07-26 22:38:00,,0828.5,5.00,0.00,31.0,27.7,00.0,39.6,31.9,32.6,0000.0,0009.29,0015.08,0008.30
2022-07-26 22:39:00,,0828.4,5.00,0.00,31.0,27.9,00.0,39.5,31.9,31.9,0000.0,0009.26,0015.21,0008.28
2022-07-26 22:40:00,,0828.4,5.01,0.00,30.9,28.1,00.0,39.5,32.0,32.2,0000.0,0009.24,0015.22,0008.27
2022-07-26 22:41:00,,0828.4,5.00,0.00,30.9,28.3,00.0,39.5,32.0,32.9,0000.0,0009.21,0015.13,0008.25
2022-07-26 22:42:00,,0828.3,5.00,0.00,30.9,28.4,00.0,39.5,32.1,32.8,0000.0,0009.16,0015.10,0008.21
2022-07-26 22:43:00,,0828.3,4.99,0.00,30.9,28.2,00.0,39.4,32.1,32.6,0000.0,0009.18,0014.56,0008.18
2022-07-26 22:44:00,,0828.3,5.01,0.00,30.8,27.6,00.0,39.4,32.0,32.4,0000.0,0009.18,0014.76,0008.16
2022-07-26 22:45:00,,0828.3,4.99,0.00,30.8,27.3,00.0,39.3,31.9,32.4,0000.0,0009.18,0014.96,0008.14
2022-07-26 22:46:00,,0828.3,5.00,0.00,30.7,27.3,00.0,39.3,31.7,32.4,0000.0,0009.17,0015.09,0008.13
2022-07-26 22:47:00,,0828.2,4.99,0.00,30.6,27.4,00.0,39.2,31.7,32.3,0000.0,0009.15,0015.32,0008.12
2022-07-26 22:48:00,,0828.3,5.00,0.00,30.5,27.6,00.0,39.2,31.7,33.1,0000.0,0009.10,0015.21,0008.12
2022-07-26 22:49:00,,0828.2,4.99,0.00,30.5,27.8,00.0,39.2,31.7,33.6,0000.0,0009.10,0014.43,0008.13
2022-07-26 22:50:00,,0828.3,5.00,0.00,30.5,28.0,00.0,39.2,31.8,34.5,0000.0,0009.14,0014.37,0008.15
2022-07-26 22:51:00,,0828.3,5.00,0.00,30.5,28.2,00.0,39.1,31.9,33.9,0000.0,0009.16,0014.38,0008.16
2022-07-26 22:52:00,,0828.3,5.01,0.00,30.5,28.4,00.0,39.1,32.0,34.9,0000.0,0009.16,0015.05,0008.17
2022-07-26 22:53:00,,0828.3,5.00,0.00,30.6,28.3,00.0,39.1,32.0,33.1,0000.0,0009.19,0015.23,0008.19
2022-07-26 22:54:00,,0828.2,4.98,0.00,30.7,27.6,00.0,39.0,31.9,32.8,0000.0,0009.23,0015.64,0008.21
2022-07-26 22:55:00,,0828.2,5.00,0.00,30.7,27.3,00.0,39.0,31.9,33.9,0000.0,0009.23,0016.05,0008.20
2022-07-26 22:56:00,,0828.1,4.99,0.00,30.6,27.3,00.0,39.0,31.7,34.9,0000.0,0009.26,0016.25,0008.20
2022-07-26 22:57:00,,0828.2,5.00,0.00,30.6,27.4,00.0,39.0,31.7,33.1,0000.0,0009.29,0016.28,0008.20
2022-07-26 22:58:00,,0828.2,5.02,0.00,30.6,27.6,00.0,38.9,31.7,31.8,0000.0,0009.30,0016.10,0008.20
2022-07-26 22:59:00,,0828.2,5.00,0.00,30.7,27.8,00.0,39.0,31.8,30.8,0000.0,0009.23,0016.37,0008.18
